[[{"header":{"parameterUnit":"m.s-1","parameterCategory":1,"la1":30.2991,"la2":30.254,"lo1":-89.0895,"lo2":-89.0444,"dy":0.0017,"dx":0.0017,"nx":28,"ny":28,"refTime":"2025-09-08T03:00:00:Z","depth":0,"parameterNumber":2,"parameterNumberName":"U-component_of_WINDS"},"data":[0,0,0,0,0,0,0,0,0,0,0,0,0,0,0,0,0,0,0,0,0,0,0,0,0,0,0,0,0,0,0,0,0,0,0,0,0,0,0,0,0,0,0,0,0,0,0,0,0,0,0,0,0,0,0,0,0,0,-3.3017,-3.3018,0,-3.3084,-3.3084,-3.3085,-3.3047,-3.3045,-3.3043,-3.3041,-3.3106,-3.3109,-3.3112,0,0,0,0,0,0,0,0,0,0,0,0,0,-3.2852,-3.2856,-3.3017,-3.3018,-3.3019,-3.3083,-3.3084,-3.3085,-3.3047,-3.3045,-3.3042,-3.304,-3.3105,-3.3109,-3.3113,0,0,0,0,0,0,0,0,0,0,0,0,0,-3.2922,-3.2857,-3.3017,-3.3008,-3.3007,-3.3083,-3.3084,-3.3085,-3.3047,-3.3045,-3.3042,-3.3039,-3.3103,-3.3108,-3.3113,-3.3201,0,0,-3.3129,-3.3131,0,0,0,0,0,0,0,0,-3.2918,-3.2928,-3.3008,-3.3008,-3.3008,-3.3054,-3.305,-3.3124,-3.3048,-3.3032,-3.3041,-3.3038,-3.3091,-3.3097,-3.3115,-3.3204,-3.3207,-3.313,-3.3133,-3.3135,-3.3136,0,0,0,0,0,0,0,-3.2913,-3.2925,-3.3043,-3.3009,-3.3009,-3.2998,-3.3005,-3.3064,-3.3076,-3.3033,-3.3031,-3.3039,-3.309,-3.311,-3.3116,-3.3208,-3.313,-3.3134,-3.3137,-3.3139,-3.3371,-3.3373,0,0,0,0,0,0,-3.291,-3.2921,-3.3041,-3.3045,-3.2955,-3.3004,-3.3011,-3.3042,-3.3075,-3.3078,-3.3042,-3.3037,-3.3103,-3.311,-3.3118,-3.3222,-3.3135,-3.314,-3.3143,-3.3368,-3.3371,-3.3375,0,0,0,0,0,0,-3.2906,-3.2921,-3.3038,-3.2982,-3.2997,-3.301,-3.3044,-3.3045,-3.3065,-3.3082,-3.3083,-3.306,-3.3101,-3.3111,-3.3181,-3.3224,-3.3142,-3.3147,-3.3364,-3.3369,-3.3373,-3.3432,0,0,0,0,0,0,-3.2902,-3.292,-3.2954,-3.2984,-3.3,-3.3101,-3.3047,-3.3048,-3.3074,-3.3069,-3.31,-3.3102,-3.3099,-3.3173,-3.3186,-3.323,-3.3151,-3.336,-3.3366,-3.3371,-3.3426,-3.3438,-3.3448,0,0,0,0,0,-3.2896,-3.2968,-3.2956,-3.2971,-3.3044,-3.3104,-3.3113,-3.311,-3.3078,-3.3112,-3.3123,-3.3101,-3.3217,-3.3181,-3.3195,-3.3241,-3.3357,-3.3364,-3.3371,-3.3421,-3.3435,-3.3448,0,0,0,0,0,0,-3.2942,-3.2972,-3.2959,-3.3043,-3.3071,-3.3097,-3.314,-3.3125,-3.3162,-3.3156,-3.3149,-3.3156,-3.3228,-3.3241,-3.32,-3.3327,-3.3282,-3.3292,-3.3316,-3.3329,-3.334,-3.3335,-3.3155,0,0,0,0,0,-3.2963,-3.3011,-3.3033,-3.3105,-3.3119,-3.3128,-3.3154,-3.3149,-3.3177,-3.3189,-3.3204,-3.3232,-3.3274,-3.3303,-3.3343,-3.3428,-3.3433,-3.3466,-3.3477,-3.3486,-3.3494,-3.3539,-3.3553,-3.3397,-3.3397,-3.3397,0,0,-3.3005,-3.3026,-3.3057,-3.3114,-3.3136,-3.3184,-3.3138,-3.3191,-3.3226,-3.3196,-3.3263,-3.3275,-3.3305,-3.3383,-3.3418,-3.3396,-3.3539,-3.3495,-3.3502,-3.3505,-3.3547,-3.3562,-3.3575,-3.3402,-3.3401,-3.34,0,0,-3.3106,-3.3128,-3.3189,-3.3212,-3.3245,-3.3249,-3.3264,-3.3292,-3.33,-3.3367,-3.3345,-3.3386,-3.346,-3.3482,-3.3503,-3.3611,-3.3592,-3.3624,-3.3681,-3.3724,-3.3737,-3.3747,-3.3785,-3.3799,-3.3632,-3.3633,-3.3633,0,-3.3153,-3.3226,-3.3222,-3.3277,-3.3302,-3.3278,-3.334,-3.3361,-3.3405,-3.3422,-3.3398,-3.3489,-3.3508,-3.359,-3.3616,-3.3634,-3.3649,-3.362,-3.3735,-3.3746,-3.3756,-3.3792,-3.3806,-3.3636,-3.3636,-3.3635,-3.3635,0,-3.3282,-3.3333,-3.3379,-3.3423,-3.3453,-3.3511,-3.3514,-3.3545,-3.3537,-3.3544,-3.3612,-3.3633,-3.3677,-3.3696,-3.3688,-3.3776,-3.3761,-3.3736,-3.3691,-3.3775,-3.3808,-3.3822,-3.3641,-3.364,-3.3639,-3.3638,0,0,-3.3415,-3.3456,-3.3473,-3.3492,-3.3526,-3.3564,-3.362,-3.3664,-3.369,-3.3721,-3.3766,-3.3829,-3.3806,-3.3829,-3.3824,-3.3862,-3.3945,-3.3832,-3.3833,-3.3852,-3.4041,-3.406,-3.4076,-3.3933,-3.3935,-3.3937,-3.4039,0,-3.3518,-3.3617,-3.3614,-3.3705,-3.3751,-3.3728,-3.3777,-3.3802,-3.381,-3.3848,-3.3856,-3.39,-3.3867,-3.3881,-3.3918,-3.3927,-3.3983,-3.392,-3.3974,-3.3976,-3.3967,-3.4093,-3.4113,-3.4208,-3.4052,-3.4054,-3.4056,0,-3.3651,-3.3687,-3.3783,-3.3809,-3.3828,-3.3872,-3.3911,-3.3949,-3.3976,-3.3979,-3.4005,-3.3993,-3.4048,-3.4002,-3.4077,-3.4034,-3.4056,-3.4064,-3.4067,-3.4072,-3.4021,-3.4101,-3.4238,-3.4252,-3.4076,-3.4075,-3.4073,0,-3.3737,-3.3809,-3.3876,-3.3893,-3.3926,-3.3957,-3.3971,-3.3996,-3.4022,-3.4056,-3.4072,-3.4111,-3.4133,-3.4163,-3.4161,-3.4128,-3.4237,-3.4191,-3.4239,-3.424,-3.4263,-3.4262,-3.4406,-3.4278,-3.4278,-3.4278,-3.4277,0,-3.3852,-3.3911,-3.3915,-3.3956,-3.4021,-3.4017,-3.4081,-3.4092,-3.4114,-3.4156,-3.4138,-3.4177,-3.4173,-3.4212,-3.4212,-3.4273,-3.4283,-3.4286,-3.4285,-3.4287,-3.4287,-3.4301,-3.4294,-3.4281,-3.4281,-3.428,-3.4279,0,-3.3959,-3.3964,-3.4035,-3.406,-3.4067,-3.4114,-3.4135,-3.4173,-3.4178,-3.4231,-3.4243,-3.4252,-3.4297,-3.4298,-3.435,-3.4349,-3.4424,-3.4416,-3.4415,-3.4413,-3.4461,-3.4457,-3.4619,-3.464,-3.4499,-3.4501,-3.4502,0,-3.4032,-3.4077,-3.4107,-3.4134,-3.415,-3.4194,-3.422,-3.4217,-3.4245,-3.4279,-3.4312,-3.4356,-3.439,-3.4463,-3.4473,-3.4512,-3.4504,-3.4558,-3.451,-3.4511,-3.4504,-3.4502,-3.4505,-3.4568,-3.4569,-3.4571,-3.4572,0,-3.416,-3.416,-3.4199,-3.4239,-3.4271,-3.4302,-3.4331,-3.4354,-3.4353,-3.4385,-3.4431,-3.4458,-3.4511,-3.4553,-3.4591,-3.4605,-3.4588,-3.4587,-3.46,-3.4603,-3.4601,-3.4602,-3.444,-3.4583,-3.4582,-3.4581,-3.4581,-3.458,-3.4252,-3.429,-3.4317,-3.4361,-3.4382,-3.4409,-3.4446,-3.4456,-3.4494,-3.4537,-3.4533,-3.4584,-3.4608,-3.4657,-3.4674,-3.4713,-3.4694,-3.4713,-3.4718,-3.4723,-3.4728,-3.4595,-3.472,-3.4719,-3.4719,-3.4719,-3.4719,0,-3.4378,-3.4394,-3.4435,-3.4475,-3.4509,-3.4491,-3.4522,-3.4551,-3.4596,-3.4621,-3.4655,-3.4708,-3.4749,-3.4762,-3.4802,-3.483,-3.4823,-3.4841,-3.4838,-3.4841,-3.4743,-3.4727,-3.4845,-3.4845,-3.4845,-3.4845,-3.4845,-3.4845,-3.4448,-3.4512,-3.4515,-3.4589,-3.4604,-3.4654,-3.4673,-3.4697,-3.4717,-3.4776,-3.4811,-3.4819,-3.4839,-3.488,-3.4916,-3.4919,-3.4934,-3.4954,-3.4954,-3.4861,-3.4849,-3.4836,-3.4822,-3.4958,-3.4958,-3.5049,-3.505,-3.5051]},{"header":{"parameterUnit":"m.s-1","parameterCategory":1,"la1":30.2991,"la2":30.254,"lo1":-89.0895,"lo2":-89.0444,"dy":0.0017,"dx":0.0017,"nx":28,"ny":28,"refTime":"2025-09-08T03:00:00:Z","depth":0,"parameterNumber":3,"parameterNumberName":"V-component_of_WINDS"},"data":[0,0,0,0,0,0,0,0,0,0,0,0,0,0,0,0,0,0,0,0,0,0,0,0,0,0,0,0,0,0,0,0,0,0,0,0,0,0,0,0,0,0,0,0,0,0,0,0,0,0,0,0,0,0,0,0,0,0,0.0533,0.0533,0,0.0542,0.0542,0.0542,0.0534,0.0534,0.0534,0.0533,0.0541,0.0542,0.0542,0,0,0,0,0,0,0,0,0,0,0,0,0,0.0511,0.0512,0.0533,0.0533,0.0533,0.0542,0.0542,0.0542,0.0534,0.0534,0.0534,0.0533,0.0541,0.0542,0.0542,0,0,0,0,0,0,0,0,0,0,0,0,0,0.052,0.0512,0.0533,0.0531,0.053,0.0542,0.0542,0.0542,0.0535,0.0534,0.0534,0.0533,0.0541,0.0542,0.0543,0.0556,0,0,0.0545,0.0545,0,0,0,0,0,0,0,0,0.052,0.0521,0.0531,0.0531,0.0531,0.0536,0.0537,0.0547,0.0535,0.0533,0.0533,0.0533,0.054,0.0541,0.0544,0.0557,0.0557,0.0545,0.0545,0.0546,0.0546,0,0,0,0,0,0,0,0.0519,0.0521,0.0536,0.0531,0.0531,0.0529,0.053,0.0539,0.0539,0.0533,0.0533,0.0534,0.054,0.0543,0.0544,0.0557,0.0545,0.0546,0.0546,0.0546,0.0584,0.0584,0,0,0,0,0,0,0.0519,0.052,0.0536,0.0537,0.0524,0.053,0.0531,0.0535,0.0539,0.0539,0.0534,0.0533,0.0542,0.0543,0.0544,0.0561,0.0546,0.0546,0.0547,0.0583,0.0584,0.0584,0,0,0,0,0,0,0.0518,0.052,0.0536,0.0528,0.053,0.0531,0.0536,0.0535,0.0538,0.054,0.054,0.0537,0.0541,0.0543,0.0554,0.0561,0.0547,0.0547,0.0582,0.0583,0.0584,0.0594,0,0,0,0,0,0,0.0518,0.052,0.0525,0.0529,0.0531,0.0545,0.0536,0.0536,0.054,0.0539,0.0542,0.0542,0.0541,0.0553,0.0554,0.0562,0.0548,0.0582,0.0583,0.0584,0.0593,0.0595,0.0597,0,0,0,0,0,0.0517,0.0527,0.0525,0.0527,0.0537,0.0545,0.0547,0.0545,0.054,0.0545,0.0547,0.0542,0.056,0.0554,0.0556,0.0563,0.0581,0.0583,0.0584,0.0592,0.0595,0.0597,0,0,0,0,0,0,0.0523,0.0527,0.0525,0.0537,0.0541,0.0544,0.055,0.0548,0.0553,0.0552,0.055,0.0551,0.0563,0.0564,0.0557,0.0578,0.057,0.0572,0.0576,0.0578,0.058,0.0579,0.0549,0,0,0,0,0,0.0526,0.0533,0.0536,0.0546,0.0548,0.0549,0.0553,0.0552,0.0556,0.0557,0.0559,0.0564,0.057,0.0575,0.0581,0.0594,0.0595,0.06,0.0602,0.0604,0.0605,0.0613,0.0615,0.0588,0.0588,0.0588,0,0,0.0531,0.0535,0.0539,0.0547,0.055,0.0558,0.055,0.0558,0.0564,0.0558,0.0569,0.0571,0.0576,0.0588,0.0593,0.059,0.0613,0.0605,0.0607,0.0607,0.0614,0.0617,0.0619,0.0589,0.0589,0.0589,0,0,0.0545,0.0548,0.0557,0.0561,0.0566,0.0567,0.057,0.0574,0.0575,0.0586,0.0582,0.059,0.0601,0.0605,0.0608,0.0626,0.0622,0.0629,0.0638,0.0646,0.0648,0.065,0.0656,0.0658,0.063,0.063,0.063,0,0.0551,0.0562,0.0562,0.057,0.0574,0.0572,0.0581,0.0585,0.0591,0.0595,0.0591,0.0606,0.0609,0.0623,0.0627,0.063,0.0633,0.0627,0.0648,0.0649,0.0651,0.0657,0.066,0.063,0.063,0.063,0.063,0,0.0569,0.0577,0.0584,0.0591,0.0596,0.0605,0.0607,0.0612,0.0612,0.0614,0.0625,0.0629,0.0637,0.064,0.0639,0.0654,0.0652,0.0648,0.064,0.0654,0.066,0.0662,0.0631,0.0631,0.0631,0.0631,0,0,0.0584,0.0594,0.0596,0.06,0.0607,0.0613,0.0623,0.0631,0.0635,0.0641,0.0649,0.066,0.0657,0.0661,0.0661,0.0668,0.0683,0.0664,0.0664,0.0667,0.07,0.0702,0.0705,0.0681,0.0682,0.0682,0.07,0,0.0598,0.0614,0.0616,0.0631,0.0638,0.0637,0.0646,0.0651,0.0654,0.0661,0.0664,0.0672,0.0667,0.067,0.0677,0.0679,0.0689,0.0679,0.0688,0.0689,0.0686,0.0708,0.071,0.0726,0.0702,0.0702,0.0702,0,0.0615,0.0623,0.0638,0.0646,0.0649,0.0656,0.0665,0.0672,0.0679,0.068,0.0686,0.0685,0.0696,0.0689,0.0704,0.0696,0.0701,0.0703,0.0704,0.0704,0.0695,0.0707,0.0731,0.0733,0.0706,0.0706,0.0705,0,0.0625,0.0638,0.065,0.0654,0.0662,0.0668,0.0672,0.0678,0.0684,0.0691,0.0695,0.0704,0.0708,0.0715,0.0717,0.0712,0.0732,0.0725,0.0733,0.0733,0.0736,0.0735,0.0759,0.0741,0.0741,0.0741,0.074,0,0.0639,0.0649,0.0654,0.0661,0.0672,0.0675,0.0686,0.069,0.0696,0.0704,0.0704,0.0712,0.0715,0.0723,0.0725,0.0737,0.0739,0.074,0.074,0.074,0.0739,0.0741,0.074,0.0741,0.0741,0.0741,0.0741,0,0.065,0.0655,0.0667,0.0675,0.0678,0.0686,0.0693,0.07,0.0704,0.0714,0.0716,0.0722,0.0732,0.0735,0.0747,0.0748,0.0762,0.0762,0.076,0.0759,0.0767,0.0766,0.0792,0.0796,0.0776,0.0776,0.0776,0,0.0659,0.0666,0.0676,0.0682,0.0686,0.0695,0.0701,0.0704,0.0711,0.072,0.0726,0.0736,0.0744,0.0761,0.0765,0.0775,0.0774,0.0783,0.0775,0.0775,0.0774,0.0773,0.0774,0.0784,0.0784,0.0784,0.0784,0,0.0673,0.0675,0.0684,0.0694,0.0701,0.0709,0.0716,0.0721,0.0726,0.0733,0.0743,0.075,0.0763,0.0773,0.0783,0.0787,0.0786,0.0787,0.0789,0.0788,0.0786,0.0787,0.0762,0.0786,0.0786,0.0785,0.0785,0.0785,0.0683,0.069,0.0698,0.0708,0.0715,0.0722,0.0729,0.0735,0.0744,0.0755,0.0757,0.0768,0.0776,0.079,0.0795,0.0804,0.0802,0.0805,0.0806,0.0806,0.0807,0.0786,0.0806,0.0806,0.0806,0.0806,0.0806,0,0.0697,0.0703,0.0712,0.0723,0.0731,0.0731,0.074,0.0747,0.0757,0.0765,0.0774,0.0786,0.0797,0.0804,0.0814,0.082,0.082,0.0823,0.0822,0.0823,0.0808,0.0805,0.0823,0.0823,0.0823,0.0823,0.0823,0.0823,0.0705,0.0717,0.0721,0.0737,0.0743,0.0754,0.0759,0.0767,0.0773,0.0787,0.0796,0.0801,0.0809,0.082,0.083,0.0832,0.0835,0.0838,0.0839,0.0825,0.0824,0.0822,0.0819,0.0839,0.0839,0.0853,0.0853,0.0853]}]]